Location: Killam
(52.7910°N, 111.8608°W)
Time: 16:13:39
(UTC+00:00)

A-11 Canister half - All Passes

Search period start: 10 February 2026 00:00
Search period end: 20 February 2026 00:00
Orbit: 1512 x 1688 km, 47.2° (Epoch: 10 February)

Date Brightness Start Highest point End Pass type
(mag) Time Alt. Az. Time Alt. Az. Time Alt. Az.
10 Feb - 05:47:12 10° SSW 05:55:27 30° SE 06:03:29 10° E night (unlit)
10 Feb - 07:49:25 10° SW 07:59:03 56° SSE 08:08:22 10° E visible
10 Feb - 09:53:40 10° W 10:03:20 63° S 10:12:39 10° ESE visible
10 Feb - 11:58:25 10° W 12:07:18 42° SSW 12:15:53 10° SE visible
10 Feb - 14:04:44 10° W 14:10:05 17° SW 14:15:21 10° SSW visible
11 Feb - 05:24:24 10° SSW 05:32:30 29° SE 05:40:24 10° E night (unlit)
11 Feb - 07:26:25 10° SW 07:36:02 55° SSE 07:45:20 10° E visible
11 Feb - 09:30:36 10° W 09:40:18 64° S 09:49:39 10° ESE visible
11 Feb - 11:35:20 10° W 11:44:19 44° SSW 11:53:00 10° SE visible
11 Feb - 13:41:26 10° W 13:47:11 18° SW 13:52:51 10° SSW visible
12 Feb - 05:01:35 10° S 05:09:31 27° SE 05:17:17 10° E night (unlit)
12 Feb - 07:03:24 10° SW 07:13:01 54° SSE 07:22:19 10° E night (unlit)
12 Feb - 09:07:32 10° W 09:17:17 64° S 09:26:40 10° ESE visible
12 Feb - 11:12:15 10° W 11:21:20 46° SSW 11:30:06 10° SE visible
12 Feb - 13:18:09 10° W 13:24:17 19° SW 13:30:18 10° S visible
13 Feb - 04:38:49 10° S 04:46:34 26° SE 04:54:10 10° E visible
13 Feb - 06:40:24 10° SW 06:50:00 52° SSE 06:59:18 10° E night (unlit)
13 Feb - 08:44:28 10° W 08:54:15 64° S 09:03:40 10° ESE visible
13 Feb - 10:49:10 10° W 10:58:21 47° SSW 11:07:12 10° SE visible
13 Feb - 12:54:55 10° W 13:01:22 21° SW 13:07:43 10° S visible
14 Feb - 04:16:04 10° S 04:23:37 25° SE 04:31:02 10° E visible
14 Feb - 06:17:24 10° SW 06:26:59 51° SSE 06:36:17 10° E night (unlit)
14 Feb - 08:21:25 10° W 08:31:13 64° S 08:40:40 10° ESE visible
14 Feb - 10:26:06 10° W 10:35:21 49° SSW 10:44:17 10° SE visible
14 Feb - 12:31:42 10° W 12:38:28 22° SW 12:45:05 10° S visible
15 Feb - 03:53:19 10° S 04:00:40 23° SE 04:07:54 10° E visible
15 Feb - 05:54:25 10° SW 06:03:58 50° SSE 06:13:15 10° E visible
15 Feb - 07:58:21 10° WSW 08:08:11 65° S 08:17:40 10° ESE visible
15 Feb - 10:03:01 10° W 10:12:22 50° SSW 10:21:22 10° SE visible
15 Feb - 12:08:30 10° W 12:15:33 23° SW 12:22:26 10° S visible
16 Feb - 03:30:37 10° S 03:37:44 22° SE 03:44:43 10° E visible
16 Feb - 05:31:27 10° SW 05:40:57 48° SSE 05:50:13 10° E visible
16 Feb - 07:35:17 10° WSW 07:45:09 64° S 07:54:40 10° E night (unlit)
16 Feb - 09:39:56 10° W 09:49:22 52° SSW 09:58:26 10° SE visible
16 Feb - 11:45:19 10° W 11:52:37 25° SW 11:59:45 10° S visible
17 Feb - 03:07:57 10° S 03:14:47 21° SE 03:21:32 10° E visible
17 Feb - 05:08:28 10° SW 05:17:57 47° SSE 05:27:11 10° E visible
17 Feb - 07:12:13 10° WSW 07:22:06 64° S 07:31:39 10° E visible
17 Feb - 09:16:51 10° W 09:26:22 53° SSW 09:35:31 10° SE visible
17 Feb - 11:22:09 10° W 11:29:41 26° SW 11:37:03 10° S visible
18 Feb - 02:45:18 10° S 02:51:51 20° SE 02:58:19 10° E visible
18 Feb - 04:45:31 10° SW 04:54:56 45° SSE 05:04:07 10° E visible
18 Feb - 06:49:09 10° WSW 06:59:04 64° S 07:08:38 10° E visible
18 Feb - 08:53:46 10° W 09:03:21 54° SSW 09:12:34 10° SE visible
18 Feb - 10:58:59 10° W 11:06:46 28° SW 11:14:19 10° S visible
19 Feb - 02:22:42 10° SSE 02:28:55 18° SE 02:35:04 10° E visible
19 Feb - 04:22:34 10° SW 04:31:56 44° SSE 04:41:05 10° E visible
19 Feb - 06:26:07 10° WSW 06:36:02 64° S 06:45:38 10° E visible
19 Feb - 08:30:42 10° W 08:40:21 56° SSW 08:49:37 10° SE night (unlit)
19 Feb - 10:35:51 10° W 10:43:49 29° SW 10:51:34 10° SSE visible
